Location: Eymir
(36.7333°N, 29.7833°E)
Time: 18:45:02
(UTC+00:00)

ATLAS CENTAUR Rocket - Pass Details

Date: 14 January 2026
Orbit: 685 x 36552 km, 28.1° (Epoch: 17 February)

Event Time Altitude Azimuth Distance (km) Brightness Sun altitude
Exits shadow 02:30:38 42° 198° (SSW) 1,783 3.6 -32.0°
Maximum altitude 02:31:37 45° 177° (S) 1,917 3.9 -31.8°
Drops below altitude 10° 02:50:43 10° 111° (ESE) 9,228 8.4 -28.0°
Sets 03:11:22 0° 109° (ESE) 15,788 10.1 -23.9°
